Home > Weather > Westerstede > Past weeks

Flag for Germany Past Weather in Westerstede, Lower Saxony, Germany — Yesterday and Last 2 Weeks

Now
63 °F

Mild.


Feels Like: 63 °F
Forecast: 52 / 67 °F
Wind: 5 mph from North

Location: Wittmundhaven

Current Time: Jul 30, 2016 at 9:02:21 PM

Latest Report: Jul 30, 2016 at 8:20 PM


Visibility: N/A

Pressure: 29.92 "Hg

Humidity: 77%

Dew Point: 55 °F

Location of WesterstedeLocation

Past Weather in Westerstede — Graph

°F

Westerstede Temperature Yesterday

Maximum temperature yesterday: 72 °F (at 1:20 PM)
Minimum temperature yesterday: 63 °F (at 12:20 AM)
Average temperature yesterday: 65 °F

High & Low Weather Summary for the Past Weeks

 TemperatureHumidityPressure
High88 °F (Jul 20, 4:20 PM)100% (Jul 17, 1:20 AM)30.21 "Hg (Jul 17, 1:20 AM)
Low54 °F (Jul 26, 5:20 AM)40% (Jul 20, 6:20 PM)29.80 "Hg (Jul 29, 1:20 PM)
Average66 °F83%30.03 "Hg
* Reported Jul 15 7:20 PM — Jul 30 7:20 PM, Westerstede, Weather by CustomWeather, © 2016

Note: Actual official high and low records may vary slightly from our data, if they occured in-between our weather recording intervals... More about our weather records

Advertising

Westerstede Weather History for the Previous 24 Hours

Scroll right to see more
 ConditionsComfort  
Time TempWeatherWind HumidityBarometerVisibility
7:20 PM
Sat, Jul 30
64 °FMild.7 mph68%29.92 "HgN/A
6:20 PM66 °FPassing clouds.9 mph68%29.92 "HgN/A
5:20 PM68 °FPassing clouds.8 mph64%29.92 "HgN/A
4:20 PM66 °FPassing clouds.8 mph64%29.89 "HgN/A
3:20 PM66 °FPassing clouds.10 mph68%29.89 "HgN/A
2:20 PM66 °FScattered clouds.10 mph73%29.89 "HgN/A
1:20 PM66 °FScattered clouds.10 mph78%29.86 "HgN/A
12:20 PM66 °FPartly sunny.9 mph83%29.86 "HgN/A
11:20 AM63 °FPartly sunny.8 mph94%29.86 "HgN/A
10:20 AM66 °FSprinkles. Partly sunny.9 mph78%29.83 "HgN/A
9:20 AM64 °FBroken clouds.8 mph88%29.83 "HgN/A
8:20 AM63 °FPartly sunny.5 mph94%29.80 "HgN/A
7:20 AM63 °FPartly sunny.9 mph94%29.80 "HgN/A
6:20 AM63 °FPassing clouds.9 mph94%29.80 "HgN/A
5:20 AM63 °FPartly cloudy.8 mph94%29.80 "HgN/A
4:20 AM63 °FPartly cloudy.7 mph94%29.80 "HgN/A
3:20 AM63 °FPassing clouds.7 mph94%29.80 "HgN/A
2:20 AM61 °FPassing clouds.5 mph100%29.83 "HgN/A
1:20 AM63 °FPassing clouds.6 mph94%29.83 "HgN/A
12:20 AM63 °FSprinkles. Partly cloudy.5 mph94%29.83 "HgN/A
11:20 PM
Fri, Jul 29
63 °FPassing clouds.6 mph94%29.83 "HgN/A
10:20 PM63 °FBroken clouds.6 mph100%29.83 "HgN/A
9:20 PM64 °FPartly sunny.5 mph94%29.80 "HgN/A
Weather by CustomWeather, © 2016

See weather overviewHow to use our weather pages